Starlink 31633

operational
NORAD ID: 59331 Int'l Des: 2024-057 Owner: SPXS Country: US Constellation: starlink
LEOCIRCULAR

About Starlink 31633

Description loading...

Live Position

Loading 3D Globe...

Upcoming Passes

Altitude History

Altitude vs Time

uPlot chart will show altitude changes over time

Two-Line Element Set

1 59331U 24057M 25352.85071430 -.00001856 00000-0 -57905-4 0 9996
2 59331 43.0025 283.7939 0000903 260.0023 100.0727 15.27594957 97471
Epoch: Dec 18, 2025 • Age: 6 hours

Current Status

Altitude 483.6 km
Velocity 7.63 km/s
Sub-Earth Point -5.14°S, 148.94°E
Launch Date Mar 25, 2024
Age 1.7 years
Type internet

Technical Details

Classification Payload
Mass 730.00 kg
Dry Mass 700.00 kg
Total Mass 730.00 kg
Length 0.30 m
Diameter 4.10 m
Span 29.00 m
Shape Box + pan
Manufacturer SPXS
Bus Type Starlink V2M
Phase Status In Orbit
Owner/State SPXS/US

Large Constellations

Loading constellations...